Location: Wapato
(46.4478°N, 120.4212°W)
Time: 09:38:54
(UTC+00:00)

Injun/Solrad 3 - Pass Details

Date: 15 May 2026
Orbit: 867 x 989 km, 66.8° (Epoch: 10 June)

Event Time Altitude Azimuth Distance (km) Brightness Sun altitude
Rises 07:13:05 0° 328° (NNW) 3,670 12.2 -23.9°
Reaches altitude 10° 07:15:49 10° 336° (NNW) 2,733 11.4 -24.0°
Maximum altitude 07:21:51 41° 46° (NE) 1,392 9.0 -24.1°
Enters shadow 07:25:58 20° 106° (ESE) 2,129 9.5 -24.3°
Drops below altitude 10° 07:27:55 10° 115° (ESE) 2,745 - -24.3°
Sets 07:30:39 0° 123° (ESE) 3,688 - -24.4°
